FW3877 Weather Reports


time (UTC)temp
C
wind
direction
speed
KPH
gust
KPH
rain 1hr
cm
rain 24hr
cm
rain mn
cm
humidity
%
barometer
mb
20260507135704 11 209 9.7 19.3 0.00 0.13 0.13 88 1010.2
20260507135204 11 216 11.3 19.3 0.05 0.13 0.13 88 1010.2
20260507134704 11 217 11.3 29.0 0.05 0.13 0.13 89 1010.2
20260507134203 11 207 8.0 14.5 0.05 0.13 0.13 89 1010.2
20260507133704 11 210 11.3 19.3 0.05 0.13 0.13 89 1010.2
20260507133204 11 215 8.0 19.3 0.05 0.13 0.13 89 1010.2
20260507132703 11 202 12.9 20.9 0.05 0.13 0.13 89 1010.3
20260507132204 11 191 11.3 19.3 0.05 0.13 0.13 89 1010.2
20260507131704 11 211 9.7 19.3 0.05 0.13 0.13 89 1010.3
20260507131204 10 211 8.0 14.5 0.05 0.13 0.13 89 1010.4
20260507130704 10 192 9.7 16.1 0.05 0.13 0.13 89 1010.3
20260507130203 10 209 9.7 19.3 0.05 0.13 0.13 87 1010.3
20260507125704 10 205 14.5 24.1 0.05 0.13 0.13 87 1010.5
20260507125203 10 203 16.1 27.4 0.03 0.08 0.08 86 1010.4
20260507124704 10 203 11.3 19.3 0.03 0.08 0.08 87 1010.4
20260507124204 11 197 11.3 22.5 0.03 0.08 0.08 87 1010.3
20260507123704 11 194 11.3 20.9 0.03 0.08 0.08 86 1010.3
20260507123204 11 194 9.7 19.3 0.03 0.08 0.08 86 1010.3
20260507122705 11 215 9.7 14.5 0.03 0.08 0.08 88 1010.3
20260507122204 11 199 9.7 19.3 0.03 0.08 0.08 88 1010.3
20260507121704 10 211 11.3 20.9 0.05 0.08 0.08 87 1010.3
20260507121204 10 217 8.0 16.1 0.08 0.08 0.08 88 1010.4
20260507120203 10 212 9.7 16.1 0.08 0.08 0.08 88 1010.5
20260507115703 10 230 8.0 16.1 0.05 0.05 0.05 87 1010.6
20260507115204 10 207 11.3 19.3 0.05 0.05 0.05 87 1010.5
20260507114204 10 203 9.7 14.5 0.05 0.05 0.05 86 1010.6
20260507113704 10 212 11.3 20.9 0.05 0.05 0.05 86 1010.6
20260507113204 10 200 9.7 16.1 0.05 0.05 0.05 86 1010.6
20260507112703 10 220 6.4 9.7 0.05 0.05 0.05 85 1010.5
20260507112204 10 216 8.0 16.1 0.05 0.05 0.05 83 1010.6
20260507111704 10 220 8.0 11.3 0.03 0.03 0.03 82 1010.6
20260507110204 10 261 9.7 19.3 0.00 0.00 0.00 81 1010.4
20260507105704 10 234 8.0 19.3 0.00 0.00 0.00 81 1010.4